Flag for Colombia Weather past 2 weeks in Bogota, Colombia

Now
66 °F

Scattered showers. Partly sunny.


Feels Like: 66 °F
Forecast: 49 / 62 °F
Wind: 7 mph from Southeast

Location: Bogota / Eldorado

Current Time: May 27, 2015 at 2:07:47 PM

Latest Report: May 27, 2015 at 1:00 PM


Visibility: N/A

Pressure: 30.30 "Hg

Humidity: 52%

Dew point: 48 °F

Location of BogotaLocation

Historic Weather in Bogota — Graph

°F

Bogota temperature yesterday

Maximum temperature yesterday: 70 °F (at 2:00 PM)
Minimum temperature yesterday: 52 °F (at 1:00 AM)
Average temperature yesterday: 59 °F

Past Weeks' High & Low Weather Summary

 TemperatureHumidityPressure
High70 °F (May 26, 2:00 PM)94% (May 13, 12:00 AM)30.44 "Hg (May 13, 12:00 AM)
Low46 °F (May 24, 5:00 AM)37% (May 12, 4:00 PM)30.23 "Hg (May 13, 5:00 PM)
Average59 °F72%30.35 "Hg
* Reported May 12 1:00 PM — May 27 1:00 PM, Bogota, Weather by CustomWeather, © 2015

Note: Actual official high and low records may vary slightly from our data, if they occured in-between our weather recording intervals... More about our weather records

Advertising

Bogota weather history for previous 24 hours

 ConditionsComfort  
Time TempWeatherWind HumidityBarometerVisibility
1:00 PM
Wed, May 27
66 °FScattered showers. Partly sunny.7 mph52%30.30 "HgN/A
12:00 PM64 °FScattered showers. Partly sunny.12 mph56%30.32 "HgN/A
11:00 AM64 °FScattered showers. Partly sunny.12 mph56%30.35 "HgN/A
10:00 AM63 °FPartly sunny.10 mph59%30.35 "HgN/A
9:00 AM63 °FPartly sunny.6 mph64%30.35 "HgN/A
8:00 AM59 °FScattered clouds.8 mph77%30.35 "HgN/A
7:00 AM55 °FScattered clouds.5 mph82%30.33 "HgN/A
6:00 AM52 °FScattered clouds.3 mph88%30.30 "HgN/A
5:00 AM54 °FPassing clouds.5 mph88%30.30 "HgN/A
4:00 AM54 °FPassing clouds.6 mph88%30.28 "HgN/A
3:00 AM54 °FPassing clouds.6 mph88%30.29 "HgN/A
2:00 AM54 °FPassing clouds.3 mph88%30.30 "HgN/A
12:00 AM55 °FPassing clouds.2 mph82%30.35 "HgN/A
11:00 PM
Tue, May 26
55 °FPassing clouds.2 mph82%30.35 "HgN/A
10:00 PM55 °FPassing clouds.2 mph77%30.35 "HgN/A
9:00 PM55 °FPassing clouds.5 mph82%30.34 "HgN/A
8:00 PM57 °FPassing clouds.2 mph77%30.33 "HgN/A
7:00 PM59 °FPassing clouds.8 mph72%30.31 "HgN/A
6:00 PM63 °FPartly sunny.8 mph68%30.28 "HgN/A
5:00 PM66 °FScattered clouds.14 mph52%30.26 "HgN/A
4:00 PM68 °FScattered clouds.12 mph46%30.26 "HgN/A
3:00 PM68 °FScattered clouds.12 mph46%30.26 "HgN/A
2:00 PM70 °FScattered clouds.12 mph43%30.29 "HgN/A
Weather by CustomWeather, © 2015

See weather overviewHow to use our weather pages